Location: Larkspur
(54.4391°N, 113.7691°W)
Time: 00:11:54
(UTC+00:00)

CZ-4C DEB - Pass Details

Date: 25 May 2024
Orbit: 605 x 614 km, 97.8° (Epoch: 21 June)

Event Time Altitude Azimuth Distance (km) Brightness Sun altitude
Exits shadow 06:58:12 - 228° (SW) 2,317 ? -14.2°
Reaches altitude 10° 06:59:34 10° 242° (WSW) 1,982 ? -14.2°
Maximum altitude 07:01:50 14° 274° (W) 1,739 ? -14.2°
Drops below altitude 10° 07:04:06 10° 306° (NW) 1,989 ? -14.3°
Sets 07:07:19 0° 332° (NNW) 2,900 ? -14.3°
